[[{"header":{"parameterUnit":"m.s-1","parameterCategory":1,"la1":30.2991,"la2":30.254,"lo1":-89.0895,"lo2":-89.0444,"dy":0.0017,"dx":0.0017,"nx":28,"ny":28,"refTime":"2024-04-14T09:00:00:Z","depth":0,"parameterNumber":2,"parameterNumberName":"U-component_of_WINDS"},"data":[0,0,0,0,0,0,0,0,0,0,0,0,0,0,0,0,0,0,0,0,0,0,0,0,0,0,0,0,0,0,0,0,0,0,0,0,0,0,0,0,0,0,0,0,0,0,0,0,0,0,0,0,0,0,0,0,0,0,-1.7851,-1.7851,0,-1.78,-1.78,-1.7799,-1.7733,-1.7732,-1.7731,-1.773,-1.7679,-1.7679,-1.7679,0,0,0,0,0,0,0,0,0,0,0,0,0,-1.7895,-1.7894,-1.7851,-1.7851,-1.785,-1.78,-1.7799,-1.7799,-1.7733,-1.7732,-1.7731,-1.7729,-1.768,-1.7679,-1.7679,0,0,0,0,0,0,0,0,0,0,0,0,0,-1.7863,-1.7894,-1.7851,-1.7811,-1.7807,-1.78,-1.7799,-1.7799,-1.7734,-1.7732,-1.773,-1.7729,-1.768,-1.7679,-1.7679,-1.7708,0,0,-1.7677,-1.7677,0,0,0,0,0,0,0,0,-1.7865,-1.7862,-1.7818,-1.7814,-1.7809,-1.7771,-1.7796,-1.7768,-1.7734,-1.7762,-1.773,-1.7728,-1.7711,-1.7708,-1.7702,-1.7705,-1.7703,-1.7677,-1.7677,-1.7676,-1.7676,0,0,0,0,0,0,0,-1.7867,-1.7863,-1.7831,-1.7817,-1.7812,-1.7797,-1.779,-1.7791,-1.7746,-1.7759,-1.7754,-1.7749,-1.7709,-1.7703,-1.7701,-1.7702,-1.7677,-1.7677,-1.7676,-1.7676,-1.7728,-1.773,0,0,0,0,0,0,-1.7875,-1.7866,-1.7833,-1.783,-1.7834,-1.7797,-1.779,-1.7785,-1.7746,-1.7738,-1.775,-1.7746,-1.7705,-1.7701,-1.7698,-1.773,-1.7676,-1.7676,-1.7676,-1.7726,-1.7728,-1.773,0,0,0,0,0,0,-1.7876,-1.7873,-1.7835,-1.7846,-1.784,-1.7798,-1.7793,-1.7785,-1.7779,-1.7739,-1.7731,-1.7752,-1.7703,-1.7699,-1.7706,-1.7728,-1.7676,-1.7675,-1.7724,-1.7727,-1.7729,-1.7794,0,0,0,0,0,0,-1.7878,-1.7874,-1.7883,-1.7847,-1.784,-1.7842,-1.7794,-1.7785,-1.7778,-1.7772,-1.7739,-1.7732,-1.7702,-1.7707,-1.7705,-1.7726,-1.7675,-1.7722,-1.7725,-1.7728,-1.779,-1.7799,-1.7806,0,0,0,0,0,-1.788,-1.7904,-1.7884,-1.7881,-1.7851,-1.7844,-1.784,-1.7804,-1.778,-1.779,-1.7765,-1.7733,-1.7726,-1.7708,-1.7706,-1.7727,-1.7721,-1.7725,-1.7728,-1.7786,-1.7797,-1.7806,0,0,0,0,0,0,-1.7944,-1.7898,-1.7876,-1.7889,-1.7871,-1.7833,-1.7844,-1.7816,-1.7804,-1.7799,-1.7756,-1.7749,-1.7761,-1.7745,-1.7726,-1.7753,-1.7719,-1.7722,-1.7763,-1.7773,-1.7781,-1.7785,-1.7674,0,0,0,0,0,-1.796,-1.7957,-1.7918,-1.7933,-1.7925,-1.7886,-1.7882,-1.7856,-1.7835,-1.7827,-1.7802,-1.7785,-1.7778,-1.7775,-1.7767,-1.7787,-1.778,-1.7801,-1.7809,-1.7816,-1.7819,-1.783,-1.7839,-1.7743,-1.7743,-1.7743,0,0,-1.7993,-1.7967,-1.7968,-1.7945,-1.7928,-1.7927,-1.788,-1.7881,-1.788,-1.7827,-1.7832,-1.7814,-1.7791,-1.7805,-1.781,-1.7792,-1.7844,-1.782,-1.7826,-1.7826,-1.7835,-1.7844,-1.7852,-1.7745,-1.7745,-1.7744,0,0,-1.8051,-1.8032,-1.8043,-1.8026,-1.8001,-1.7975,-1.7978,-1.7945,-1.793,-1.7934,-1.7895,-1.7894,-1.7884,-1.7869,-1.7861,-1.7916,-1.7886,-1.7915,-1.7957,-1.7968,-1.7975,-1.7982,-1.8002,-1.801,-1.7918,-1.7918,-1.7918,0,-1.8095,-1.8091,-1.8052,-1.8055,-1.8047,-1.7999,-1.8011,-1.7997,-1.7971,-1.7967,-1.7946,-1.7933,-1.7914,-1.7925,-1.7938,-1.7933,-1.7936,-1.7918,-1.7977,-1.7983,-1.7989,-1.8008,-1.8015,-1.7922,-1.7922,-1.7921,-1.7921,0,-1.8147,-1.8145,-1.8157,-1.8132,-1.8125,-1.8133,-1.8095,-1.8093,-1.8068,-1.8045,-1.8051,-1.8027,-1.8014,-1.8014,-1.799,-1.8022,-1.8011,-1.7985,-1.7949,-1.8002,-1.8019,-1.8026,-1.7927,-1.7926,-1.7925,-1.7924,0,0,-1.8244,-1.8198,-1.8203,-1.8192,-1.8161,-1.8159,-1.8165,-1.8151,-1.8151,-1.8135,-1.8139,-1.8132,-1.8108,-1.8098,-1.8072,-1.8082,-1.8128,-1.8054,-1.8053,-1.8069,-1.8163,-1.8183,-1.8192,-1.8108,-1.811,-1.8111,-1.8165,0,-1.8297,-1.8303,-1.8269,-1.8285,-1.8283,-1.8239,-1.8244,-1.8226,-1.8206,-1.8202,-1.8179,-1.8175,-1.8143,-1.8137,-1.8144,-1.8121,-1.8146,-1.8116,-1.8113,-1.8113,-1.812,-1.82,-1.8221,-1.8273,-1.8171,-1.8172,-1.8173,0,-1.8359,-1.8346,-1.8362,-1.8331,-1.8329,-1.8334,-1.832,-1.8316,-1.8296,-1.828,-1.827,-1.824,-1.8245,-1.8211,-1.8218,-1.8199,-1.8195,-1.8184,-1.8185,-1.8183,-1.8146,-1.8201,-1.8289,-1.8297,-1.8183,-1.8182,-1.8181,0,-1.8429,-1.8415,-1.8423,-1.8415,-1.8379,-1.8384,-1.8369,-1.8347,-1.8342,-1.833,-1.8326,-1.8315,-1.8309,-1.8302,-1.827,-1.8248,-1.8281,-1.8244,-1.8268,-1.8269,-1.8277,-1.8277,-1.8366,-1.8275,-1.8275,-1.8275,-1.8275,0,-1.8491,-1.8503,-1.8454,-1.8459,-1.8471,-1.8432,-1.8446,-1.8427,-1.8408,-1.8409,-1.8371,-1.8373,-1.8331,-1.8329,-1.8304,-1.8314,-1.8312,-1.83,-1.8293,-1.8303,-1.8305,-1.83,-1.8296,-1.8277,-1.8276,-1.8276,-1.8276,0,-1.8571,-1.8539,-1.8545,-1.851,-1.8502,-1.8513,-1.8484,-1.8488,-1.8465,-1.8467,-1.8465,-1.843,-1.8425,-1.8393,-1.8382,-1.8365,-1.8385,-1.8371,-1.8391,-1.8387,-1.8413,-1.8411,-1.8503,-1.8513,-1.8416,-1.8417,-1.8417,0,-1.8613,-1.8621,-1.8588,-1.8586,-1.8573,-1.857,-1.8564,-1.8527,-1.8523,-1.8501,-1.8508,-1.85,-1.8492,-1.8488,-1.8461,-1.8453,-1.8439,-1.8471,-1.8437,-1.8447,-1.844,-1.844,-1.8441,-1.8479,-1.848,-1.8481,-1.8482,0,-1.8692,-1.8676,-1.8668,-1.8656,-1.865,-1.8639,-1.8625,-1.8626,-1.8585,-1.8583,-1.8577,-1.8571,-1.856,-1.8553,-1.8541,-1.8526,-1.8498,-1.8493,-1.8498,-1.8508,-1.852,-1.8515,-1.8411,-1.8491,-1.849,-1.8489,-1.8489,-1.8488,-1.8754,-1.8759,-1.8737,-1.8731,-1.8717,-1.8705,-1.8707,-1.8685,-1.8679,-1.8667,-1.8645,-1.8644,-1.8624,-1.8604,-1.8593,-1.8592,-1.8574,-1.8582,-1.8584,-1.8586,-1.8592,-1.852,-1.8589,-1.8589,-1.8588,-1.8588,-1.8588,0,-1.8831,-1.8815,-1.8809,-1.8791,-1.8787,-1.876,-1.8744,-1.8742,-1.8741,-1.8725,-1.8718,-1.8713,-1.8707,-1.868,-1.8671,-1.8676,-1.8663,-1.8675,-1.8674,-1.8672,-1.8607,-1.8604,-1.8686,-1.8686,-1.8686,-1.8686,-1.8686,-1.8686,-1.887,-1.8878,-1.886,-1.8861,-1.8844,-1.8842,-1.8835,-1.8825,-1.8812,-1.8808,-1.8802,-1.8785,-1.8765,-1.8755,-1.8748,-1.8741,-1.874,-1.8757,-1.8745,-1.8685,-1.8676,-1.8667,-1.8663,-1.8757,-1.8757,-1.8809,-1.881,-1.881]},{"header":{"parameterUnit":"m.s-1","parameterCategory":1,"la1":30.2991,"la2":30.254,"lo1":-89.0895,"lo2":-89.0444,"dy":0.0017,"dx":0.0017,"nx":28,"ny":28,"refTime":"2024-04-14T09:00:00:Z","depth":0,"parameterNumber":3,"parameterNumberName":"V-component_of_WINDS"},"data":[0,0,0,0,0,0,0,0,0,0,0,0,0,0,0,0,0,0,0,0,0,0,0,0,0,0,0,0,0,0,0,0,0,0,0,0,0,0,0,0,0,0,0,0,0,0,0,0,0,0,0,0,0,0,0,0,0,0,4.7917,4.7916,0,4.7894,4.7894,4.7893,4.7794,4.7792,4.7789,4.7787,4.7765,4.7766,4.7768,0,0,0,0,0,0,0,0,0,0,0,0,0,4.7876,4.7877,4.7917,4.7916,4.7916,4.7894,4.7894,4.7893,4.7794,4.7792,4.7789,4.7786,4.7764,4.7766,4.7768,0,0,0,0,0,0,0,0,0,0,0,0,0,4.7877,4.7878,4.7917,4.7864,4.7859,4.7894,4.7893,4.7893,4.7795,4.7792,4.7788,4.7785,4.7764,4.7766,4.7768,4.7852,0,0,4.7775,4.7776,0,0,0,0,0,0,0,0,4.7878,4.7879,4.7872,4.7868,4.7862,4.7843,4.7871,4.7879,4.7796,4.7819,4.7787,4.7783,4.7794,4.7793,4.7797,4.7851,4.785,4.7775,4.7777,4.7778,4.7779,0,0,0,0,0,0,0,4.7878,4.7879,4.7908,4.7872,4.7866,4.7842,4.7838,4.7872,4.7826,4.7817,4.781,4.7808,4.779,4.7795,4.7795,4.785,4.7775,4.7777,4.7779,4.778,4.7972,4.7975,0,0,0,0,0,0,4.7885,4.788,4.7908,4.7907,4.7861,4.7846,4.7841,4.7853,4.7826,4.7818,4.7811,4.7804,4.7792,4.7793,4.7794,4.789,4.7778,4.778,4.7781,4.7968,4.7973,4.7977,0,0,0,0,0,0,4.7884,4.7888,4.7909,4.7892,4.7892,4.785,4.7864,4.7854,4.7858,4.7821,4.7813,4.7824,4.779,4.7791,4.7838,4.7888,4.7781,4.7783,4.7964,4.797,4.7975,4.8084,0,0,0,0,0,0,4.7883,4.7889,4.792,4.7893,4.7894,4.7954,4.7867,4.7856,4.7863,4.7852,4.7831,4.7824,4.7787,4.7835,4.7841,4.7889,4.7785,4.7959,4.7966,4.7973,4.8076,4.8092,4.8107,0,0,0,0,0,4.7882,4.7951,4.7922,4.7926,4.7932,4.7957,4.7957,4.7913,4.7867,4.7898,4.7874,4.7825,4.7882,4.7841,4.7846,4.7897,4.7956,4.7964,4.7972,4.8069,4.8089,4.8106,0,0,0,0,0,0,4.7985,4.7947,4.7914,4.7976,4.797,4.794,4.7977,4.7936,4.7943,4.7934,4.7879,4.7875,4.793,4.7918,4.7873,4.7976,4.7911,4.792,4.7982,4.8001,4.8017,4.8018,4.7787,0,0,0,0,0,4.8015,4.8038,4.8004,4.8062,4.8061,4.8021,4.803,4.7996,4.7988,4.7985,4.7965,4.7959,4.7976,4.7988,4.8001,4.8074,4.8068,4.8111,4.8127,4.814,4.8148,4.8186,4.8205,4.8004,4.8004,4.8004,0,0,4.8077,4.8059,4.8077,4.8083,4.8074,4.81,4.8019,4.8049,4.8068,4.799,4.8033,4.8018,4.8009,4.8069,4.8095,4.8061,4.8203,4.815,4.8161,4.8163,4.8196,4.8216,4.8232,4.801,4.8009,4.8008,0,0,4.8203,4.8192,4.8239,4.8233,4.8221,4.8194,4.8205,4.8181,4.8169,4.8211,4.8153,4.8175,4.8205,4.82,4.8202,4.8328,4.8282,4.8334,4.8415,4.8452,4.8468,4.8482,4.8526,4.8543,4.8343,4.8343,4.8343,0,4.8281,4.8317,4.8269,4.8303,4.8307,4.8238,4.8286,4.8282,4.8276,4.8281,4.8243,4.8279,4.8268,4.8326,4.8357,4.8361,4.8372,4.8335,4.847,4.8483,4.8495,4.8537,4.8554,4.8349,4.8349,4.8348,4.8347,0,4.8414,4.844,4.848,4.8475,4.8484,4.8525,4.8484,4.8499,4.8465,4.8442,4.8486,4.847,4.8479,4.8491,4.8458,4.8545,4.8524,4.8479,4.8412,4.8521,4.856,4.8575,4.8358,4.8356,4.8354,4.8353,0,0,4.8603,4.8572,4.8587,4.8584,4.8567,4.8586,4.8625,4.8633,4.8647,4.8646,4.8676,4.8704,4.8662,4.8664,4.8631,4.8664,4.8764,4.8614,4.8613,4.8642,4.8859,4.8892,4.8912,4.8734,4.8737,4.874,4.8859,0,4.8722,4.8785,4.8743,4.8813,4.8837,4.8772,4.8806,4.8799,4.8779,4.8796,4.8774,4.8794,4.8737,4.8738,4.8768,4.8746,4.8807,4.8736,4.8762,4.8764,4.8766,4.8932,4.8967,4.9081,4.8874,4.8877,4.8878,0,4.8869,4.8874,4.8947,4.8925,4.8934,4.8965,4.8969,4.8987,4.8978,4.8961,4.8965,4.8923,4.8959,4.8894,4.8944,4.8897,4.8905,4.8896,4.89,4.8899,4.8827,4.8936,4.9116,4.9133,4.8902,4.89,4.8898,0,4.8999,4.9024,4.907,4.907,4.9047,4.907,4.9061,4.9049,4.9057,4.9062,4.9067,4.9076,4.9081,4.9089,4.9051,4.9007,4.9106,4.9038,4.9093,4.9094,4.9116,4.9115,4.93,4.9123,4.9123,4.9123,4.9122,0,4.9136,4.9183,4.9128,4.9157,4.9208,4.916,4.9211,4.9196,4.9186,4.9211,4.9156,4.9181,4.9129,4.9149,4.912,4.9165,4.9168,4.9156,4.9147,4.916,4.9162,4.9164,4.9155,4.9127,4.9126,4.9125,4.9124,0,4.9289,4.9254,4.9301,4.9275,4.9269,4.9308,4.9286,4.9311,4.9288,4.932,4.9325,4.9288,4.9309,4.9272,4.9287,4.9268,4.9332,4.9311,4.9335,4.9328,4.9385,4.938,4.9577,4.9601,4.941,4.9412,4.9414,0,4.9378,4.9413,4.9391,4.9403,4.9398,4.9419,4.9427,4.9382,4.9392,4.9386,4.9413,4.9428,4.9438,4.9474,4.9449,4.9461,4.944,4.9508,4.9441,4.9453,4.944,4.9438,4.9441,4.9521,4.9524,4.9526,4.9527,0,4.954,4.9522,4.9535,4.9544,4.9555,4.9559,4.9559,4.9573,4.9525,4.954,4.956,4.9568,4.9584,4.9601,4.9607,4.9598,4.9555,4.9549,4.9562,4.9575,4.9587,4.9581,4.9371,4.9544,4.9542,4.9541,4.954,4.954,4.9663,4.9691,4.968,4.9697,4.9693,4.9695,4.9718,4.9698,4.9713,4.9723,4.9695,4.9722,4.9713,4.9717,4.9713,4.9734,4.9703,4.9723,4.9727,4.9733,4.9742,4.9585,4.9735,4.9734,4.9734,4.9733,4.9733,0,4.9822,4.9812,4.9829,4.9831,4.9845,4.9804,4.9802,4.9817,4.984,4.9836,4.9847,4.9871,4.9887,4.9864,4.9876,4.9896,4.9877,4.9901,4.9899,4.9897,4.9768,4.9755,4.9917,4.9916,4.9916,4.9916,4.9916,4.9916,4.9906,4.9951,4.9931,4.9974,4.9963,4.9989,4.9991,4.9993,4.9989,5.0018,5.0031,5.0016,5.0004,5.0015,5.0028,5.0021,5.0028,5.0059,5.0045,4.9924,4.9906,4.9889,4.9877,5.0061,5.0061,5.0171,5.0173,5.0173]}]]